Weather in Talitsa

Russia / Lipetsk Oblast     52°42′36″N   38°43′26″E
temp.,
°C
wind,
m/s
gust,
m/s
humid.,
%
clouds,
%
prec.,
mm/h
press.,
hPa
HPBL,
m
11 may, tue
tue1100:00+9nne102085100 0.0 1019455
03:00+8nne9188999 0.1 1020467
06:00+9nne9188940 0.1 1019542
09:00+13ne8128295 0.1 1020679
12:00+10se61089100 0.2 1022570
15:00+9ene48914 1.8 1024379
18:00+13se79692 0.0 1024994
21:00+7ese398489 0.0 1026190
12 may, wed
wed1200:00+6ese229280 0.0 102711
03:00+5nne349048 0.0 102664
06:00+7ne4887100 0.0 1025228
09:00+8ne2493100 1.8 1023172
12:00+7wsw4695100 7.9 1020354
15:00+7sw2492100 13.2 1020216
18:00+11ese497964 0.0 10201013
21:00+8e5129238 0.0 1020257
13 may, thu
thu1300:00+8e51491100 0.0 1020320
03:00+10ese51492100 0.2 1019438
06:00+9ese3795100 0.2 1019213
09:00+14ese3380100 0.2 1018388
12:00+18sse2363100 0.0 10171153
15:00+18ssw3463100 0.0 10171147
18:00+16sse22745 0.8 1017164
21:00+12s11844 0.9 101811
14 may, fri
fri1400:00+11e228784 0.0 101819
03:00+11e3594100 0.0 101875
06:00+13e4895100 0.0 1017206
09:00+18e698199 0.0 1016477
12:00+21se5768100 0.0 10161077
15:00+23se71067100 0.8 10141433
18:00+21sse497697 1.2 1013293
21:00+18sse358859 2.8 101264
15 may, sat
sat1500:00+17se2391100 0.3 101133
03:00+15wsw2396100 5.4 101345
06:00+16ene4895100 1.9 1012201
09:00+19se4787100 2.3 1011449
12:00+21s61175100 2.2 1011733
15:00+23s6867100 0.9 10111301
18:00
21:00+13sse259491 3.8 1010131